FW9648 Weather Reports


time (UTC)temp
C
wind
direction
speed
KPH
gust
KPH
rain 1hr
cm
rain 24hr
cm
rain mn
cm
humidity
%
barometer
mb
20260504130638 16 151 1.6 8.0 0.00 0.00 0.00 56 1014.8
20260504130134 15 275 0.0 9.7 0.00 0.00 0.00 55 1014.8
20260504110526 8 99 0.0 0.0 0.00 0.00 0.00 81 1015.2
20260504100442 7 144 3.2 3.2 0.00 0.00 0.00 79 1014.8
20260504081841 8 209 0.0 3.2 0.00 0.00 0.00 75 1015.0
20260504081337 8 127 3.2 8.0 0.00 0.00 0.00 76 1014.8
20260504080833 8 173 0.0 3.2 0.00 0.00 0.00 77 1015.0
20260504080331 8 75 0.0 1.6 0.00 0.00 0.00 77 1014.9
20260504070258 8 106 0.0 3.2 0.00 0.00 0.00 75 1014.9
20260504060219 8 251 0.0 0.0 0.00 0.00 0.00 69 1015.2
20260504050646 10 160 0.0 3.2 0.00 0.00 0.00 66 1015.4
20260504050143 10 128 3.2 3.2 0.00 0.00 0.00 65 1015.1
20260504045641 10 246 0.0 1.6 0.00 0.00 0.00 65 1015.0
20260504045140 10 258 0.0 3.2 0.00 0.00 0.00 65 1015.1
20260504044638 10 216 0.0 3.2 0.00 0.00 0.00 65 1014.9
20260504044135 10 229 0.0 4.8 0.00 0.00 0.00 66 1014.9
20260504043632 10 243 0.0 4.8 0.00 0.00 0.00 65 1015.0
20260504043129 10 151 0.0 6.4 0.00 0.00 0.00 65 1014.9
20260504042626 10 195 0.0 1.6 0.00 0.00 0.00 68 1014.6
20260504042123 10 246 0.0 3.2 0.00 0.00 0.00 68 1014.9
20260504041619 10 195 0.0 3.2 0.00 0.00 0.00 68 1014.8
20260504041115 10 229 4.8 6.4 0.00 0.00 0.00 68 1014.7
20260504040613 9 192 0.0 4.8 0.00 0.00 0.00 72 1014.8
20260504040109 8 240 0.0 0.0 0.00 0.00 0.00 75 1014.8
20260504035606 8 240 0.0 3.2 0.00 0.00 0.00 75 1015.0
20260504035102 8 151 0.0 0.0 0.00 0.00 0.00 75 1014.8
20260504034600 8 151 0.0 1.6 0.00 0.00 0.00 74 1014.8
20260504034057 8 114 0.0 0.0 0.00 0.00 0.00 74 1014.8
20260504033555 8 105 0.0 0.0 0.00 0.00 0.00 73 1014.8
20260504033052 9 105 0.0 0.0 0.00 0.00 0.00 73 1014.6
20260504032549 9 124 3.2 3.2 0.00 0.00 0.00 72 1014.7
20260504032046 8 254 0.0 3.2 0.00 0.00 0.00 72 1014.8
20260504031543 8 123 1.6 6.4 0.00 0.00 0.00 71 1014.5
20260504031039 9 151 1.6 3.2 0.00 0.00 0.00 71 1014.7
20260504030536 9 106 0.0 3.2 0.00 0.00 0.00 70 1014.9
20260504030032 9 123 1.6 4.8 0.00 0.00 0.00 71 1014.8
20260504025530 9 186 1.6 3.2 0.00 0.00 0.00 72 1014.6
20260504025026 8 233 0.0 4.8 0.00 0.00 0.00 72 1015.0
20260504024523 8 215 1.6 4.8 0.00 0.00 0.00 74 1015.0
20260504024020 8 173 0.0 3.2 0.00 0.00 0.00 74 1014.8
20260504023517 8 241 3.2 4.8 0.00 0.00 0.00 74 1014.8
20260504023013 8 106 0.0 4.8 0.00 0.00 0.00 74 1014.8
20260504022508 8 188 0.0 3.2 0.00 0.00 0.00 74 1014.6
20260504022005 8 206 0.0 3.2 0.00 0.00 0.00 74 1014.6
20260504021503 7 187 0.0 3.2 0.00 0.00 0.00 74 1014.7
20260504021000 7 240 1.6 3.2 0.00 0.00 0.00 73 1014.7
20260504020456 8 220 1.6 3.2 0.00 0.00 0.00 72 1014.6
20260504015953 8 215 0.0 1.6 0.00 0.00 0.00 72 1014.4
20260504015449 8 98 0.0 3.2 0.00 0.00 0.00 70 1014.5
20260504014945 8 120 1.6 1.6 0.00 0.00 0.00 70 1014.5
20260504014441 8 99 0.0 1.6 0.00 0.00 0.00 69 1014.3
20260504013938 8 212 0.0 3.2 0.00 0.00 0.00 69 1014.3
20260504013437 8 231 0.0 4.8 0.00 0.00 0.00 68 1014.1
20260504012932 8 215 1.6 3.2 0.00 0.00 0.00 67 1014.1
20260504012431 8 270 1.6 3.2 0.00 0.00 0.00 67 1014.3
20260504011928 8 229 0.0 0.0 0.00 0.00 0.00 66 1014.0
20260504011425 8 229 0.0 0.0 0.00 0.00 0.00 65 1014.0
20260504010920 8 229 0.0 0.0 0.00 0.00 0.00 66 1014.0
20260504010417 8 229 0.0 0.0 0.00 0.00 0.00 65 1014.1
20260504005913 9 229 0.0 0.0 0.00 0.00 0.00 64 1014.0
20260504005410 9 229 0.0 0.0 0.00 0.00 0.00 64 1013.9
20260504004908 10 229 0.0 3.2 0.00 0.00 0.00 62 1014.0
20260504004405 10 246 0.0 1.6 0.00 0.00 0.00 61 1014.0
20260504003902 10 237 0.0 0.0 0.00 0.00 0.00 60 1013.9
20260504003358 10 246 0.0 3.2 0.00 0.00 0.00 59 1013.8
20260504002855 10 261 0.0 3.2 0.00 0.00 0.00 59 1013.8
20260504002352 10 209 1.6 3.2 0.00 0.00 0.00 58 1013.8
20260504001849 11 253 0.0 0.0 0.00 0.00 0.00 57 1013.8
20260504001347 11 253 0.0 0.0 0.00 0.00 0.00 56 1013.7
20260504000843 11 253 0.0 3.2 0.00 0.00 0.00 56 1013.8
20260504000340 11 232 3.2 3.2 0.00 0.00 0.00 55 1013.7
20260503235838 12 240 0.0 3.2 0.00 0.00 0.00 54 1013.8
20260503235335 12 215 0.0 1.6 0.00 0.00 0.00 52 1013.8
20260503234832 12 243 0.0 1.6 0.00 0.00 0.00 51 1013.8
20260503234330 13 230 4.8 4.8 0.00 0.00 0.00 50 1013.6
20260503233828 13 248 3.2 3.2 0.00 0.00 0.00 52 1013.7
20260503233323 14 240 3.2 4.8 0.00 0.00 0.00 47 1013.6
20260503232820 13 240 4.8 4.8 0.00 0.00 0.00 49 1013.7
20260503232318 14 254 3.2 3.2 0.00 0.00 0.00 48 1013.5
20260503231815 14 261 3.2 3.2 0.00 0.00 0.00 46 1013.4
20260503231312 15 241 4.8 4.8 0.00 0.00 0.00 48 1013.4
20260503230808 15 261 0.0 4.8 0.00 0.00 0.00 46 1013.3
20260503230305 16 270 3.2 3.2 0.00 0.00 0.00 44 1013.3
20260503225803 16 240 0.0 4.8 0.00 0.00 0.00 37 1013.4
20260503225258 16 251 0.0 6.4 0.00 0.00 0.00 37 1013.2
20260503224755 16 270 0.0 4.8 0.00 0.00 0.00 43 1013.5
20260503224253 16 270 0.0 4.8 0.00 0.00 0.00 41 1013.4
20260503223750 17 275 0.0 3.2 0.00 0.00 0.00 36 1013.5
20260503223248 17 243 0.0 4.8 0.00 0.00 0.00 29 1013.3
20260503222743 18 342 1.6 8.0 0.00 0.00 0.00 31 1013.4
20260503222242 17 243 0.0 4.8 0.00 0.00 0.00 32 1013.3
20260503221740 17 128 3.2 4.8 0.00 0.00 0.00 28 1013.5
20260503221237 17 281 3.2 8.0 0.00 0.00 0.00 28 1013.6
20260503220734 18 135 3.2 4.8 0.00 0.00 0.00 29 1013.5
20260503220231 18 358 0.0 8.0 0.00 0.00 0.00 31 1013.7
20260503215727 18 180 0.0 8.0 0.00 0.00 0.00 27 1013.6
20260503215224 18 221 3.2 14.5 0.00 0.00 0.00 28 1013.7
20260503214722 19 239 3.2 9.7 0.00 0.00 0.00 27 1013.5
20260503214219 20 234 0.0 4.8 0.00 0.00 0.00 29 1013.5
20260503213717 19 263 1.6 9.7 0.00 0.00 0.00 27 1013.5
20260503213214 19 249 8.0 14.5 0.00 0.00 0.00 28 1013.7
20260503212711 19 240 0.0 11.3 0.00 0.00 0.00 28 1013.5
20260503212209 19 0 3.2 6.4 0.00 0.00 0.00 29 1013.6
20260503211706 19 289 4.8 4.8 0.00 0.00 0.00 30 1013.6
20260503211202 19 270 0.0 12.9 0.00 0.00 0.00 28 1013.5
20260503210658 19 266 3.2 8.0 0.00 0.00 0.00 27 1013.7
20260503210155 19 198 1.6 11.3 0.00 0.00 0.00 29 1013.6
20260503205650 19 308 0.0 6.4 0.00 0.00 0.00 27 1013.7
20260503205146 18 251 0.0 6.4 0.00 0.00 0.00 28 1013.6
20260503204643 18 58 4.8 6.4 0.00 0.00 0.00 29 1013.9
20260503204141 18 206 3.2 9.7 0.00 0.00 0.00 29 1013.9
20260503203638 19 201 3.2 4.8 0.00 0.00 0.00 30 1013.9
20260503203136 18 99 4.8 6.4 0.00 0.00 0.00 31 1014.1
20260503202633 19 305 4.8 6.4 0.00 0.00 0.00 30 1014.1
20260503202131 19 279 0.0 4.8 0.00 0.00 0.00 32 1014.3
20260503201629 18 245 0.0 8.0 0.00 0.00 0.00 29 1014.3
20260503201126 18 299 3.2 4.8 0.00 0.00 0.00 33 1014.6
20260503200621 18 255 4.8 11.3 0.00 0.00 0.00 30 1014.5
20260503200118 18 341 0.0 8.0 0.00 0.00 0.00 33 1014.5
20260503195615 18 254 1.6 8.0 0.00 0.00 0.00 32 1014.5
20260503195112 18 153 4.8 9.7 0.00 0.00 0.00 33 1014.7
20260503194609 18 315 3.2 8.0 0.00 0.00 0.00 36 1014.8
20260503194104 18 240 0.0 12.9 0.00 0.00 0.00 30 1014.8
20260503193601 18 166 3.2 6.4 0.00 0.00 0.00 31 1014.9
20260503193056 17 226 8.0 12.9 0.00 0.00 0.00 32 1015.0
20260503192553 16 112 12.9 12.9 0.00 0.00 0.00 32 1014.8
20260503192048 16 270 4.8 19.3 0.00 0.00 0.00 32 1015.1
20260503191545 17 336 6.4 9.7 0.00 0.00 0.00 34 1015.2
20260503191042 17 256 6.4 9.7 0.00 0.00 0.00 33 1015.3
20260503190539 17 74 0.0 8.0 0.00 0.00 0.00 34 1015.4
20260503190037 17 123 9.7 11.3 0.00 0.00 0.00 34 1015.5
20260503185533 16 172 0.0 12.9 0.00 0.00 0.00 31 1015.9
20260503185032 16 222 11.3 16.1 0.00 0.00 0.00 35 1015.7
20260503184529 16 206 4.8 12.9 0.00 0.00 0.00 31 1015.9
20260503184026 17 240 8.0 8.0 0.00 0.00 0.00 35 1015.8
20260503183522 16 231 9.7 11.3 0.00 0.00 0.00 35 1016.1
20260503183019 16 63 6.4 11.3 0.00 0.00 0.00 39 1016.1
20260503182518 16 123 4.8 6.4 0.00 0.00 0.00 35 1016.1
20260503182015 16 300 4.8 8.0 0.00 0.00 0.00 38 1016.2
20260503181512 16 294 3.2 9.7 0.00 0.00 0.00 34 1016.2
20260503181008 17 119 4.8 11.3 0.00 0.00 0.00 38 1016.0
20260503180506 16 343 3.2 8.0 0.00 0.00 0.00 37 1016.2
20260503180003 16 225 0.0 9.7 0.00 0.00 0.00 33 1016.3
20260503175501 16 303 8.0 9.7 0.00 0.00 0.00 37 1016.6
20260503174957 16 105 1.6 14.5 0.00 0.00 0.00 38 1016.4
20260503174455 15 113 3.2 14.5 0.00 0.00 0.00 34 1016.4
20260503173950 15 189 6.4 11.3 0.00 0.00 0.00 34 1016.6
20260503173446 15 283 4.8 8.0 0.00 0.00 0.00 40 1016.7
20260503172943 15 45 9.7 11.3 0.00 0.00 0.00 37 1016.9
20260503172440 15 114 8.0 20.9 0.00 0.00 0.00 37 1016.6
20260503171937 15 79 6.4 9.7 0.00 0.00 0.00 38 1016.8
20260503171433 15 339 4.8 8.0 0.00 0.00 0.00 38 1016.7
20260503170931 15 226 6.4 11.3 0.00 0.00 0.00 37 1016.8
20260503170427 15 242 8.0 9.7 0.00 0.00 0.00 35 1016.9
20260503150819 11 222 12.9 20.9 0.00 0.00 0.00 38 1018.3
20260503150315 12 285 6.4 9.7 0.00 0.00 0.00 40 1018.2
20260503140240 11 90 4.8 16.1 0.00 0.00 0.00 42 1018.3